North Las Vegas, NV

11:20 PM PDT on October 22, 2017 (GMT -0700)
North Las Vegas

Weather History for KVGT - July, 2013

Change the Weather History Date:

Tuesday, July 30, 2013

  Actual Average Record
Temperature  
Mean Temperature 88 °F 92 °F  
Max Temperature 104 °F 104 °F 106 °F (2016)
Min Temperature 75 °F 79 °F 72 °F (2017)
Degree Days  
Heating Degree Days 0 0  
Month to date heating degree days 0  
Since 1 July heating degree days 0  
Cooling Degree Days 24 27  
Month to date cooling degree days 792  
Year to date cooling degree days 1873  
Growing Degree Days 38 (Base 50)    
Moisture  
Dew Point 41 °F    
Average Humidity 18    
Maximum Humidity 33    
Minimum Humidity 11    
Precipitation  
Precipitation 0.00 in 0.02 in 0.05 in (2003)
Month to date precipitation 0.41  
Year to date precipitation 3.09  
Sea Level Pressure  
Sea Level Pressure 29.97 in    
Wind  
Wind Speed 6 mph (South)    
Max Wind Speed 18 mph    
Max Gust Speed 24 mph    
Visibility 10 miles    
Events      
T = Trace of Precipitation, MM = Missing Value Source: NWS Daily Summary

Daily Weather History Graph

Daily Weather History Graph

Search for Another Location

Airport or City:

Trip Planner

Search our weather history database for the weather conditions in past years. The results will help you decide how hot, cold, wet, or windy it might be!

Date:

Astronomy

Jul. 30, 2013 Rise Set
Actual Time 5:46 AM PDT 7:47 PM PDT
Civil Twilight 5:17 AM PDT 8:15 PM PDT
Nautical Twilight 4:43 AM PDT 8:50 PM PDT
Astronomical Twilight 4:05 AM PDT 9:27 PM PDT
Moon 12:05 AM PDT (7/30) 2:12 PM PDT (7/30)
Length of Visible Light 14h 58m
Length of Day
14h 01m
Last Quarter, 40% of the Moon is Illuminated
Jul 30
Last Quarter
Aug 6
New
Aug 14
First Quarter
Aug 20
Full
Aug 28
Last Quarter

Hourly Weather History & Observations

Time (PDT) Temp. Dew Point Humidity Pressure Visibility Wind Dir Wind Speed Gust Speed Precip Events Conditions
12:53 AM 86.0 °F 39.0 °F 19% 29.92 in 10.0 mi SW 3.5 mph - N/A   Clear
1:53 AM 84.0 °F 39.9 °F 21% 29.93 in 10.0 mi South 6.9 mph - N/A   Clear
2:53 AM 84.9 °F 39.0 °F 20% 29.93 in 10.0 mi Calm Calm - N/A   Clear
3:53 AM 80.1 °F 42.1 °F 26% 29.95 in 10.0 mi Calm Calm - N/A   Clear
4:53 AM 78.1 °F 43.0 °F 29% 29.97 in 10.0 mi North 5.8 mph - N/A   Clear
5:53 AM 75.0 °F 44.1 °F 33% 29.99 in 10.0 mi NNW 4.6 mph - N/A   Clear
6:53 AM 79.0 °F 44.1 °F 29% 30.01 in 10.0 mi Calm Calm - N/A   Clear
7:53 AM 86.0 °F 42.1 °F 21% 30.03 in 10.0 mi Calm Calm - N/A   Clear
8:53 AM 90.0 °F 35.1 °F 14% 30.04 in 10.0 mi ESE 6.9 mph - N/A   Clear
9:53 AM 91.0 °F 37.9 °F 15% 30.04 in 10.0 mi SE 6.9 mph - N/A   Clear
10:53 AM 95.0 °F 39.9 °F 15% 30.04 in 10.0 mi SSE 10.4 mph - N/A   Clear
11:53 AM 97.0 °F 41.0 °F 14% 30.03 in 10.0 mi SSE 12.7 mph 16.1 mph N/A   Clear
12:53 PM 98.1 °F 44.1 °F 16% 30.01 in 10.0 mi South 5.8 mph - N/A   Clear
1:53 PM 100.0 °F 44.1 °F 15% 29.98 in 10.0 mi SSE 11.5 mph - N/A   Clear
2:53 PM 102.0 °F 39.9 °F 12% 29.95 in 10.0 mi SSW 18.4 mph 24.2 mph N/A   Clear
3:53 PM 102.0 °F 42.1 °F 13% 29.94 in 10.0 mi SSE 12.7 mph 21.9 mph N/A   Clear
4:53 PM 102.0 °F 37.9 °F 11% 29.93 in 10.0 mi SW 12.7 mph 20.7 mph N/A   Clear
5:53 PM 102.0 °F 39.0 °F 11% 29.91 in 10.0 mi SW 15.0 mph 19.6 mph N/A   Clear
6:53 PM 100.9 °F 37.9 °F 11% 29.92 in 10.0 mi SSW 10.4 mph 21.9 mph N/A   Clear
7:53 PM 99.0 °F 37.0 °F 12% 29.92 in 10.0 mi SSW 9.2 mph - N/A   Clear
8:53 PM 96.1 °F 42.1 °F 15% 29.94 in 10.0 mi SSE 8.1 mph - N/A   Clear
9:53 PM 93.0 °F 43.0 °F 18% 29.97 in 10.0 mi South 6.9 mph - N/A   Clear
10:53 PM 91.9 °F 42.1 °F 18% 29.97 in 10.0 mi SW 5.8 mph - N/A   Clear